Regional Weather Roundup
Issued by NWS

Home | Current Version | Previous Version | Text Only | Print | Product List | Glossary Off
Versions: 1 2 3 4 5 6 7 8 9 10 11 12 13 14 15 16 17 18 19 20 21 22 23 24 25 26 27 28 29 30 31 32 33 34 35 36 37 38 39 40 41 42 43 44 45 46 47 48 49 50

000
ASUS43 KOAX 261702
RWRNE

WEATHER ROUNDUP FOR NEBRASKA
NATIONAL WEATHER SERVICE OMAHA NE
1200 PM CDT MON JUN 26 2017

NOTES: SATELLITE DATA IS BEING USED TO AUGMENT CLOUD COVER ABOVE
       12000 FEET.
       "FAIR" INDICATES FEW OR NO CLOUDS BELOW 12,000 FEET WITH NO
       SIGNIFICANT WEATHER AND/OR OBSTRUCTIONS TO VISIBILITY.

  * THESE STATIONS DO NOT REPORT WEATHER SUCH AS RAIN...SNOW OR FOG.

NEZ001>004-019>022-054>056-261800-
NEBRASKA PANHANDLE

CITY           SKY/WX    TMP DP  RH WIND       PRES   REMARKS
SCOTTSBLUFF    SUNNY     75  50  41 E9        30.22F
ALLIANCE       SUNNY     73  41  31 E12       30.23F
CHADRON        SUNNY     73  39  29 E10       30.21F
GORDON         FAIR      71  40  32 E9G16     30.24F
KIMBALL        SUNNY     76  52  43 NE9       30.25F
SIDNEY         MOSUNNY   78  54  43 VRB5      30.23F
$$

NEZ057>060-069>072-079>082-261800-
SOUTHWEST NEBRASKA

CITY           SKY/WX    TMP DP  RH WIND       PRES   REMARKS
NORTH PLATTE   TSTM      67  62  84 N7        30.20R
IMPERIAL       SUNNY     76  57  51 VRB6      30.20F
LEXINGTON      CLOUDY    72  60  67 CALM      30.18F
MCCOOK         SUNNY     76  60  57 VRB6      30.17F
OGALLALA       SUNNY     76  56  49 NE9       30.20F
$$

NEZ005>010-023>029-035>040-094-261800-
NORTH CENTRAL NEBRASKA

CITY           SKY/WX    TMP DP  RH WIND       PRES   REMARKS
VALENTINE      SUNNY     74  37  26 NE16      30.22F
AINSWORTH      SUNNY     71  43  36 NE12G23   30.23S
BROKEN BOW     PTSUNNY   72  54  53 NE7       30.19S
O`NEILL        SUNNY     69  46  44 N7G18     30.23S
ORD            SUNNY     75  43  31 NE14G20   30.17F
THEDFORD       SUNNY     73  39  29 E16       30.23F
$$

NEZ041-046>049-061>064-073>077-083>087-261800-
SOUTH CENTRAL NEBRASKA

CITY           SKY/WX    TMP DP  RH WIND       PRES   REMARKS
GRAND ISLAND   MOSUNNY   73  61  65 NW10      30.17F
AURORA         PTSUNNY   73  59  60 N7        30.16F
HASTINGS       CLOUDY    72  58  61 W9        30.19S
HEBRON         MOSUNNY   75  58  55 W3        30.17F
HOLDREGE       CLOUDY    68  58  71 CALM      30.17F
KEARNEY *      PTSUNNY   73  59  60 NW3       30.17F
YORK           PTSUNNY   72  57  60 W10       30.17S
$$

NEZ011>018-030>034-042>045-261800-
NORTHEAST NEBRASKA

CITY           SKY/WX    TMP DP  RH WIND       PRES   REMARKS
NORFOLK        MOSUNNY   70  50  49 NE14      30.19R
ALBION         SUNNY     74  48  38 NE10      30.18S
BLAIR          SUNNY     69  57  64 CALM      30.18F
FREMONT        PTSUNNY   71  56  59 CALM      30.18S
TEKAMAH        SUNNY     70  53  54 MISG      30.18S
WAYNE          MOSUNNY   70  51  51 E10       30.20S
$$

NEZ050>053-065>068-078-088>093-261800-
SOUTHEAST NEBRASKA

CITY           SKY/WX    TMP DP  RH WIND       PRES   REMARKS
LINCOLN        SUNNY     68  60  75 S7        30.18F
OMAHA EPPLEY   MOSUNNY   68  57  68 S7        30.18F
BEATRICE       CLOUDY    68  57  67 SE9       30.18F
FALLS CITY     TSTM      59  56  89 S14       30.21R
NEBRASKA CITY  CLOUDY    62  62  97 S10       30.19F
PLATTSMOUTH    MOSUNNY   65  57  75 S8        30.18F
$$

NEZ044-045-051>053-067-261800-
OMAHA AREA

CITY           SKY/WX    TMP DP  RH WIND       PRES   REMARKS
OMAHA EPPLEY   MOSUNNY   68  57  68 S7        30.18F
BLAIR          SUNNY     69  57  64 CALM      30.18F
FREMONT        PTSUNNY   71  56  59 CALM      30.18S
MILLARD        MOSUNNY   69  58  69 S5        30.18F
OFFUTT AFB     MOSUNNY   66  57  72 CALM      30.17F
PLATTSMOUTH    MOSUNNY   65  57  75 S8        30.18F
WAHOO          FAIR      69  55  59 S3        30.17F
$$




USA.gov is the U.S. government's official web portal to all federal, state and local government web resources and services.